This demonstration page uses our WeatherBlox Daily Observations layout. Learn more.

Left ArrowRight Arrow

44.8408, -93.29828

Hourly Observations for September 20, 2021

Temp ( °F °C ) Dew Point ( °F °C ) Humidity (%) Winds ( mph kmh ) Pressure ( in mb ) Visibility ( mi km ) Precip ( " mm )
12:53 am 00:53 Mostly Clear 76 24.4 63 17.2 64 64 S 14 22 29.75 1007 10 16 0.00 0.00
1:53 am 01:53 Mostly Clear 74 23.3 63 17.2 69 69 SSE 10 17 29.73 1007 10 16 0.00 0.00
2:53 am 02:53 Mostly Clear 75 23.9 63 17.2 66 66 S 13 20 29.72 1007 10 16 0.00 0.00
3:53 am 03:53 Partly Cloudy 73 22.8 63 17.2 71 71 S 14 22 29.70 1006 10 16 0.00 0.00
4:53 am 04:53 Partly Cloudy 73 22.8 63 17.2 71 71 S 14 22 29.69 1006 10 16 0.00 0.00
5:53 am 05:53 Mostly Cloudy 73 22.8 63 17.2 71 71 S 16 26 29.68 1005 10 16 0.00 0.00
6:53 am 06:53 Mostly Cloudy 72 22.2 64 17.8 76 76 S 14 22 29.69 1005 10 16 0.00 0.00
7:53 am 07:53 Mostly Cloudy 72 22.2 64 17.8 76 76 S 9 15 29.70 1006 10 16 0.00 0.00
8:53 am 08:53 Cloudy 72 22.2 64 17.8 76 76 SSE 10 17 29.67 1005 10 16 0.00 0.00
9:29 am 09:29 Cloudy 72 22.2 64 17.8 76 76 S 8 13 29.66 1004 10 16 0.00 0.00
9:44 am 09:44 Cloudy 72 22.2 64 17.8 76 76 S 10 17 29.66 1004 10 16 0.00 0.00
9:53 am 09:53 Cloudy 72 22.2 64 17.8 76 76 S 13 20 29.68 1005 10 16 0.00 0.00
10:53 am 10:53 Cloudy 74 23.3 65 18.3 74 74 S 14 22 29.66 1005 10 16 0.00 0.00
11:53 am 11:53 Cloudy with Light Rain 72 22.2 67 19.4 84 84 SE 9 15 29.63 1003 10 16 0.01 0.25
12:53 pm 12:53 Cloudy with Light Rain 72 22.2 67 19.4 84 84 SE 7 11 29.62 1003 10 16 0.00 0.00
1:53 pm 13:53 Cloudy 73 22.8 67 19.4 81 81 S 17 28 29.59 1002 10 16 0.01 0.25
2:53 pm 14:53 Cloudy 72 22.2 68 20 87 87 SSE 9 15 29.55 1001 9 14 0.01 0.25
3:07 pm 15:07 Cloudy with Heavy Rain 71 21.7 68 20 90 90 WNW 23 37 29.56 1001 2 3 0.00 0.00
3:10 pm 15:10 Cloudy with Heavy Rain 68 20 66 18.9 93 93 NW 20 31 29.56 1001 1 1 0.02 0.51
3:15 pm 15:15 Cloudy with Light Rain 67 19.4 65 18.3 93 93 WNW 16 26 29.57 1001 2 3 0.06 1.52
3:19 pm 15:19 Cloudy with Light Rain 67 19.4 65 18.3 93 93 W 24 39 29.58 1002 7 11 0.06 1.52
3:39 pm 15:39 Cloudy with Light Rain 65 18.3 62 16.7 90 90 WNW 21 33 29.59 1002 10 16 0.06 1.52
3:48 pm 15:48 Cloudy with Light Rain 64 18 63 17 94 94 WNW 14 22 29.61 1003 6 10 0.07 1.78
3:53 pm 15:53 Cloudy with Light Rain 63 17.2 61 16.1 93 93 WNW 20 31 29.62 1003 4 6 0.07 1.78
4:07 pm 16:07 Cloudy with Thunderstorms 63 17.2 61 16.1 93 93 WNW 10 17 29.63 1003 9 14 0.00 0.00
4:36 pm 16:36 Cloudy with Light Rain 63 17.2 61 16.1 93 93 WNW 15 24 29.64 1004 10 16 0.00 0.00
4:53 pm 16:53 Cloudy 62 16.7 59 15 90 90 WNW 15 24 29.65 1004 10 16 0.00 0.00
5:53 pm 17:53 Cloudy 62 16.7 58 14.4 86 86 NW 18 30 29.66 1005 10 16 0.00 0.00
6:28 pm 18:28 Cloudy 61 16.1 57 13.9 87 87 WNW 14 22 29.73 1007 10 16 0.00 0.00
6:39 pm 18:39 Cloudy 61 16.1 57 13.9 87 87 WNW 14 22 29.74 1007 10 16 0.00 0.00
6:53 pm 18:53 Cloudy 62 16.7 57 13.9 84 84 WNW 13 20 29.75 1008 10 16 0.00 0.00
7:10 pm 19:10 Cloudy 62 16.7 57 13.9 84 84 WNW 14 22 29.76 1008 10 16 0.00 0.00
7:30 pm 19:30 Cloudy 62 16.7 57 13.9 84 84 WNW 15 24 29.77 1008 10 16 0.00 0.00
7:53 pm 19:53 Cloudy 62 16.7 56 13.3 80 80 NW 15 24 29.78 1008 10 16 0.00 0.00
8:01 pm 20:01 Cloudy 62 16.7 55 12.8 78 78 NW 14 22 29.79 1009 10 16 0.00 0.00
8:53 pm 20:53 Cloudy 61 16.1 56 13.3 84 84 WNW 13 20 29.82 1010 10 16 0.00 0.00
9:46 pm 21:46 Cloudy with Light Rain 60 15.6 56 13.3 86 86 NW 18 30 29.85 1011 10 16 0.00 0.00
9:53 pm 21:53 Cloudy with Light Rain 59 15 56 13.3 90 90 NW 17 28 29.85 1011 6 10 0.00 0.00
10:25 pm 22:25 Cloudy 58 14.4 54 12.2 87 87 NW 16 26 29.89 1012 10 16 0.00 0.00
10:43 pm 22:43 Cloudy 57 13.9 53 11.7 87 87 NW 15 24 29.90 1012 10 16 0.00 0.00
10:53 pm 22:53 Cloudy 57 13.9 53 11.7 87 87 NW 14 22 29.89 1012 10 16 0.00 0.00
11:53 pm 23:53 Cloudy with Light Rain 56 13.3 52 11.1 87 87 NW 15 24 29.93 1014 10 16 0.00 0.00

Powered by AerisWeather